FENGYUN 1C DEB

Satellite information

Favourite Embed

Satellite Type and Status

DEBRISIN ORBIT

Key statistics

Satellite FENGYUN 1C DEB at a glance.

Uptime

9715

Days in orbit

Revolutions

≈ 14.1

Per day

Orbit

SSO

Sun Synchronous Orbit

Inclination

98.7

Latest

Satellite identification and parameters

Extended collection of information and parameters for FENGYUN 1C DEB.

Object identification

Identified? True

Debris? True

Object name: FENGYUN 1C DEB

International designator: 1999-025BKQ

Object number (NORAD): 31210

Object ID (CCSDS): 31210

Country: PEOPLES REPUBLIC OF CHINA (PRC)

Current information (Y/N): Y

RCS size: SMALL

Orbital parameters

Period: 101.983 minutes

Inclination: 98.7187 deg

SMA: 7230.693 km

Apoapsis: 864.92 km

Periapsis: 840.196 km

RAAN: 346.5366 deg

Eccentricy: 0.00170964

Argument of periapsis: 158.6297 deg

Mean anomaly: 359.0795 deg

Mean motion: 14.11994038 rev/day

Mean motion (dot): 0.00000969 rev/day2

B* drag term: 0.00055192367 1/REarth

Two-line elements (TLE)

Creation date: Dec. 11, 2025, 7:14 p.m.

Reference frame: TEME

Reference center: EARTH

Epoch: Dec. 11, 2025, 11:19 a.m. UTC

TLE line 0: 0 FENGYUN 1C DEB

TLE line 1: 1 31210U 99025BKQ 25345.47160543 .00000969 00000-0 55192-3 0 9990

TLE line 2: 2 31210 98.7187 346.5366 0017096 158.6297 359.0795 14.11994038959497

Live tracking on map

Real-time ground track for satellite FENGYUN 1C DEB.

In-orbit conjunctions

A list of the most updated potential collisions computed for object FENGYUN 1C DEB.

Target Orbit TCA Probability of collision Miss distance Type
METEOR 2-3 LEO 2025-11-10 00:44:49 0.0005767669 152.0 (m) PAYLOAD
FENGYUN 1C DEB SSO 2025-07-07 20:57:27 0.0001462874 302.0 (m) DEBRIS
METEOR 1-17 DEB LEO 2024-11-11 13:08:58 0.0004572619 237.0 (m) DEBRIS

Associated space launch

Chinese polar orbiting meteorological satellite

FENGYUN 1C DEB was lifted into orbit during the mission ‘Long March 4B | Feng Yun 1C’, on board a Long March 4B space rocket.

The launch took place on May 10, 1999, 1:33 a.m. from Launch Complex 7.

For more information about the launch, click the button.

Launch to space Long March 4B | Feng Yun 1C
Long March 4B | Feng Yun 1C

Agency: N/A

Status: Launch Successful

Launch date: May 10, 1999, 1:33 a.m. UTC

Rocket: Long March 4B

Launch pad: Launch Complex 7

Location: Taiyuan Satellite Launch Center, People's Republic of China

...

Latest news about this satellite

There are no fresh news available about this satellite. Check back as we update our databases every day.


Newsletter sign-up

Weekly statistics, charts and insights to help you stay on top of the space industry.